DMSP 5D-2 F13 DEB, 42271

Orbit data source: Space-Track

DMSP 5D-2 F13 DEB, 42271 is space debris in SSO originally from a launch on Fri, 24 Mar 1995 UTC launched from the Air Force Western Test Range (AFWTR). Debris objects in space refer to the collection of defunct objects orbiting the Earth. Examples of debris include non-operational satellites, rocket bodies, and fragments generated from explosions, collisions, or faulty payload assembly.

Loading next visibility...
Identifier
42271, 1995-015GM
Orbit
SSO
Country
Flag of USUS
Related business
Manufacturer
Unknown
Mission
Spacecraft
Bus & Motor
Unknown
Mass
Unknown
Launch date (UTC)
1995-03-24 (31 years ago)
Launch vehicle
Unknown
Launch site
Air Force Western Test Range (AFWTR)
Object type
Payload
Rocket body
Debris
Shape & HBR
Unknown shape, 0.1 m
Radar Cross Section
Small (<0.1 m²)

Expand to show TLE details & history
Last TLE update: 1 day ago

TLE from 1 day ago
0 DMSP 5D-2 F13 DEB
1 42271U 95015GM  25287.60581970  .00026918  00000-0  45473-2 0  9997
2 42271  98.6883 346.8492 0001470 190.2002 169.9172 14.69350822535943
Epoch: 2025-10-14T14:32Z
TLE epoch observation values (Epoch: 2025-10-14T14:32:22.822Z)
Latitude
-0.00001°
Longitude
105.36227°
Altitude
667.143 km
Speed
7.523 km/s
True Right ascension
23h 07m 23s
True Declination
0° 00' 00"
Sunlit
Object was in full shadow at epoch
Visualization orbit readout
Latitude
Unknown
Longitude
Unknown
Altitude
Unknown
Speed
Unknown
Apparent Right ascension
Unknown
Apparent Declination
Unknown
Sunlit
N/A
Visualization observer readout
Local Sidereal Time
12:41:02
Azimuth
Unknown
Elevation
Unknown
Doppler factor
Unknown
Orbital elements
Apogee altitude
661.268 km
Perigee altitude
659.199 km
Semi-major axis
7,038.37 km
Eccentricity
0.00015
Inclination
98.6883°
RAAN
346.8492°
Arg. of periapsis
190.2002°
True anomaly
169.92015°
Mean anomaly
169.9172°
Eccentric anomaly
169.91867°
Mean motion
3.67566 °/min
Orbital period
97.94 mins
BSTAR
0.0045473

Documentation

Showing up to 5 results
|